Weather History for Dover AFB, DE

Change the Weather History Date:

Friday, October 10, 2014

  Actual Average Record
Temperature  
Mean Temperature 58 °F -  
Max Temperature 61 °F 71 °F 87 °F (1958)
Min Temperature 54 °F 49 °F 32 °F (1979)
Degree Days  
Heating Degree Days 8    
Growing Degree Days 8 (Base 50)    
Moisture  
Dew Point 51 °F    
Average Humidity 77    
Maximum Humidity 96    
Minimum Humidity 59    
Precipitation  
Precipitation 0.04 in - - ()
Sea Level Pressure  
Sea Level Pressure 30.08 in    
Wind  
Wind Speed 5 mph (NE)    
Max Wind Speed 8 mph    
Max Gust Speed -    
Visibility 10 miles    
Events Rain    
Averages and records for this station are not official NWS values.
T = Trace of Precipitation, MM = Missing Value Source: NWS Daily Summary

Daily Weather History Graph

Daily Weather History Graph

Search for Another Location

Airport:

Trip Planner

Search our weather history database for the weather conditions in past years. The results will help you decide how hot, cold, wet, or windy it might be!

Date:

Astronomy

Oct. 10, 2014 Rise Set
Actual Time 7:06 AM EDT 6:30 PM EDT
Civil Twilight 6:39 AM EDT 6:57 PM EDT
Nautical Twilight 6:08 AM EDT 7:28 PM EDT
Astronomical Twilight 5:37 AM EDT 7:59 PM EDT
Moon 8:10 PM EDT (10/10) 9:24 AM EDT (10/10)
Length of Visible Light 12h 17m
Length of Day
11h 24m
Waning Gibbous, 94% of the Moon is Illuminated
Oct 10
Waning Gibbous
Oct 15
Last Quarter
Oct 23
New
Oct 30
First Quarter
Nov 6
Full

Hourly Weather History & Observations

Time (EDT) Temp. Dew Point Humidity Pressure Visibility Wind Dir Wind Speed Gust Speed Precip Events Conditions
12:58 AM 59.0 °F 51.8 °F 77% 30.07 in 10.0 mi West 6.9 mph - N/A   Overcast
1:58 AM 58.6 °F 49.5 °F 72% 30.08 in 10.0 mi SW 4.6 mph - N/A   Scattered Clouds
2:58 AM 54.9 °F 49.6 °F 83% 30.08 in 10.0 mi NW 2.3 mph - N/A   Overcast
3:58 AM 57.2 °F 52.2 °F 83% 30.09 in 10.0 mi Calm Calm - N/A   Overcast
4:58 AM 54.7 °F 50.4 °F 85% 30.09 in 10.0 mi Calm Calm - N/A   Overcast
5:58 AM 54.9 °F 50.5 °F 85% 30.10 in 10.0 mi North 3.5 mph - N/A   Overcast
6:58 AM 55.4 °F 49.1 °F 79% 30.10 in 10.0 mi NNE 4.6 mph - N/A   Overcast
7:58 AM 55.9 °F 48.4 °F 76% 30.11 in 10.0 mi NNE 2.3 mph - N/A   Overcast
8:58 AM 57.9 °F 48.4 °F 71% 30.12 in 10.0 mi NNE 4.6 mph - N/A   Mostly Cloudy
9:58 AM 61.0 °F 47.5 °F 61% 30.12 in 10.0 mi NNE 5.8 mph - N/A   Scattered Clouds
10:58 AM 61.0 °F 46.6 °F 59% 30.12 in 10.0 mi ENE 5.8 mph - N/A   Mostly Cloudy
11:58 AM 60.6 °F 47.7 °F 62% 30.11 in 10.0 mi ESE 5.8 mph - N/A   Mostly Cloudy
12:58 PM 60.4 °F 48.7 °F 65% 30.11 in 10.0 mi NE 4.6 mph - N/A   Overcast
1:27 PM 60.8 °F 48.2 °F 63% 30.08 in 10.0 mi NE 5.8 mph - N/A Rain Light Rain
1:39 PM 60.8 °F 48.2 °F 63% 30.08 in 10.0 mi NE 4.6 mph - N/A   Mostly Cloudy
1:49 PM 60.8 °F 48.2 °F 63% 30.07 in 10.0 mi NE 4.6 mph - N/A Rain Light Rain
1:58 PM 60.3 °F 48.7 °F 66% 30.08 in 10.0 mi ENE 4.6 mph - 0.00 in Rain Light Rain
2:01 PM 60.8 °F 48.2 °F 63% 30.07 in 10.0 mi East 5.8 mph - N/A   Mostly Cloudy
2:32 PM 60.8 °F 46.4 °F 59% 30.08 in 10.0 mi ENE 2.3 mph - N/A Rain Light Rain
2:56 PM 59.0 °F 51.8 °F 77% 30.06 in 10.0 mi ENE 3.5 mph - N/A   Scattered Clouds
2:58 PM 59.0 °F 51.8 °F 77% 30.07 in 10.0 mi ENE 4.6 mph - 0.00 in   Scattered Clouds
3:44 PM 60.8 °F 51.8 °F 72% 30.06 in 10.0 mi NE 3.5 mph - N/A Rain Light Rain
3:58 PM 59.9 °F 51.3 °F 73% 30.06 in 10.0 mi NE 3.5 mph - 0.00 in   Light Drizzle
4:03 PM 60.8 °F 51.8 °F 72% 30.04 in 10.0 mi ENE 5.8 mph - N/A   Scattered Clouds
4:58 PM 59.5 °F 52.5 °F 78% 30.05 in 10.0 mi NE 3.5 mph - 0.00 in   Mostly Cloudy
5:43 PM 59.0 °F 53.6 °F 82% 30.05 in 10.0 mi NNE 6.9 mph - N/A   Overcast
5:58 PM 58.6 °F 52.9 °F 81% 30.06 in 10.0 mi North 8.1 mph - N/A   Overcast
6:43 PM 57.2 °F 51.8 °F 82% 30.06 in 10.0 mi North 4.6 mph - N/A   Overcast
6:48 PM 57.2 °F 51.8 °F 82% 30.05 in 10.0 mi NNE 4.6 mph - N/A   Overcast
6:53 PM 57.2 °F 51.8 °F 82% 30.05 in 10.0 mi NNE 4.6 mph - N/A   Overcast
6:58 PM 57.4 °F 52.0 °F 82% 30.07 in 10.0 mi NNE 4.6 mph - N/A   Overcast
7:08 PM 57.2 °F 51.8 °F 82% 30.06 in 10.0 mi North 5.8 mph - N/A   Overcast
7:58 PM 57.4 °F 51.6 °F 81% 30.08 in 10.0 mi NNE 4.6 mph - N/A   Overcast
8:35 PM 57.2 °F 51.8 °F 82% 30.07 in 10.0 mi North 5.8 mph - N/A Rain Light Rain
8:36 PM 57.2 °F 51.8 °F 82% 30.07 in 10.0 mi NNE 5.8 mph - N/A   Overcast
8:58 PM 57.2 °F 53.1 °F 86% 30.08 in 10.0 mi NNE 5.8 mph - 0.00 in   Overcast
9:00 PM 57.2 °F 53.6 °F 88% 30.07 in 10.0 mi NE 5.8 mph - N/A Rain Light Rain
9:23 PM 57.2 °F 53.6 °F 88% 30.07 in 10.0 mi NNE 4.6 mph - N/A   Overcast
9:48 PM 57.2 °F 53.6 °F 88% 30.06 in 10.0 mi NE 5.8 mph - N/A   Overcast
9:52 PM 57.2 °F 53.6 °F 88% 30.06 in 10.0 mi NE 5.8 mph - N/A Rain Light Rain
9:58 PM 57.4 °F 53.8 °F 88% 30.07 in 10.0 mi NE 5.8 mph - 0.00 in Rain Light Rain
10:03 PM 57.2 °F 53.6 °F 88% 30.06 in 10.0 mi NE 6.9 mph - N/A Rain Light Rain
10:58 PM 56.8 °F 54.3 °F 91% 30.07 in 10.0 mi NE 4.6 mph - 0.01 in Rain Light Rain
11:58 PM 56.7 °F 55.6 °F 96% 30.05 in 7.0 mi NE 5.8 mph - 0.03 in Rain Light Rain